When you browse on this site, cookies collect data to enhance your experience and personalize the content and advertising you see.
Visit our Privacy Policy to learn more. By continuing to use the site, you agree to this use of cookies and data.
  • In Belgien
  • Länderverzeichnis
  • Für 7 Tage
  • Wassertemperatur
  • Wetterkarte
  • Widgets
  • user-avatar
    Anmelden

    Stündliche Wetter Retschytsa

    Heute, 28 Mai, Donnerstag

    Zeit Temperatur Niederschläge Wind Luftdruck Luftfeuchtigkeit
    00:00 +9°C° 0 mm 0 m/S 756 mmHg 90%
    01:00 +10°C° 0 mm 1 m/S 756 mmHg 90%
    02:00 +10°C° 0 mm 1 m/S 756 mmHg 90%
    03:00 +10°C° 0 mm 1 m/S 756 mmHg 91%
    04:00 +10°C° 0 mm 1 m/S 755 mmHg 91%
    05:00 +10°C° 0 mm 1 m/S 755 mmHg 92%
    06:00 +12°C° 0 mm 2 m/S 755 mmHg 86%
    07:00 +14°C° 0 mm 2 m/S 755 mmHg 81%
    08:00 +15°C° 0 mm 2 m/S 755 mmHg 76%
    09:00 +17°C° 0 mm 3 m/S 755 mmHg 71%
    10:00 +18°C° 0 mm 3 m/S 754 mmHg 65%
    11:00 +19°C° 0 mm 4 m/S 754 mmHg 60%
    12:00 +19°C° 0.3 mm 4 m/S 753 mmHg 63%
    13:00 +19°C° 0.3 mm 4 m/S 753 mmHg 65%
    14:00 +19°C° 0.3 mm 5 m/S 752 mmHg 68%
    15:00 +18°C° 0.1 mm 4 m/S 752 mmHg 70%
    16:00 +17°C° 0.1 mm 4 m/S 751 mmHg 72%
    17:00 +17°C° 0.1 mm 4 m/S 751 mmHg 74%
    18:00 +15°C° 0.4 mm 4 m/S 750 mmHg 78%
    19:00 +13°C° 0.4 mm 5 m/S 750 mmHg 82%
    20:00 +12°C° 0.4 mm 5 m/S 749 mmHg 87%
    21:00 +11°C° 3.5 mm 6 m/S 749 mmHg 89%
    22:00 +10°C° 3.5 mm 7 m/S 748 mmHg 92%
    23:00 +10°C° 3.5 mm 7 m/S 748 mmHg 95%

    Morgen, 29 Mai, Freitag

    Zeit Temperatur Niederschläge Wind Luftdruck Luftfeuchtigkeit
    00:00 +10°C° 1.6 mm 7 m/S 747 mmHg 95%
    01:00 +10°C° 1.6 mm 6 m/S 747 mmHg 96%
    02:00 +11°C° 1.6 mm 6 m/S 746 mmHg 96%
    03:00 +12°C° 0.2 mm 5 m/S 746 mmHg 97%
    04:00 +12°C° 0.2 mm 4 m/S 746 mmHg 97%
    05:00 +13°C° 0.2 mm 3 m/S 745 mmHg 97%
    06:00 +14°C° 0.1 mm 3 m/S 745 mmHg 95%
    07:00 +16°C° 0.1 mm 3 m/S 745 mmHg 92%
    08:00 +17°C° 0.1 mm 3 m/S 745 mmHg 89%
    09:00 +17°C° 0.5 mm 4 m/S 745 mmHg 86%
    10:00 +18°C° 0.5 mm 4 m/S 745 mmHg 82%
    11:00 +17°C° 0.5 mm 5 m/S 745 mmHg 78%
    12:00 +18°C° 0.1 mm 4 m/S 745 mmHg 76%
    13:00 +18°C° 0.1 mm 4 m/S 745 mmHg 73%
    14:00 +18°C° 0.1 mm 4 m/S 745 mmHg 70%
    15:00 +18°C° 0.1 mm 3 m/S 745 mmHg 71%
    16:00 +19°C° 0.1 mm 3 m/S 745 mmHg 71%
    17:00 +19°C° 0.1 mm 3 m/S 745 mmHg 72%
    18:00 +18°C° 0.1 mm 3 m/S 745 mmHg 79%
    19:00 +17°C° 0.1 mm 3 m/S 745 mmHg 86%
    20:00 +15°C° 0.1 mm 2 m/S 745 mmHg 93%
    21:00 +15°C° 0 mm 2 m/S 745 mmHg 94%
    22:00 +14°C° 0 mm 2 m/S 745 mmHg 94%
    23:00 +13°C° 0 mm 2 m/S 745 mmHg 95%

    übermorgen, 30 Mai, Samstag

    Zeit Temperatur Niederschläge Wind Luftdruck Luftfeuchtigkeit
    00:00 +13°C° 0 mm 2 m/S 745 mmHg 95%
    01:00 +13°C° 0 mm 2 m/S 745 mmHg 95%
    02:00 +13°C° 0 mm 2 m/S 745 mmHg 95%
    03:00 +13°C° 0 mm 2 m/S 745 mmHg 96%
    04:00 +14°C° 0 mm 2 m/S 744 mmHg 96%
    05:00 +14°C° 0 mm 2 m/S 744 mmHg 96%
    06:00 +14°C° 0.2 mm 3 m/S 744 mmHg 96%
    07:00 +16°C° 0.2 mm 3 m/S 744 mmHg 96%
    08:00 +16°C° 0.2 mm 3 m/S 744 mmHg 97%
    09:00 +17°C° 0.8 mm 4 m/S 743 mmHg 94%
    10:00 +17°C° 0.8 mm 5 m/S 743 mmHg 92%
    11:00 +19°C° 0.8 mm 6 m/S 742 mmHg 89%
    12:00 +19°C° 2.4 mm 6 m/S 742 mmHg 91%
    13:00 +17°C° 2.4 mm 6 m/S 741 mmHg 93%
    14:00 +16°C° 2.4 mm 6 m/S 741 mmHg 95%
    15:00 +17°C° 0.6 mm 7 m/S 740 mmHg 93%
    16:00 +17°C° 0.6 mm 7 m/S 740 mmHg 92%
    17:00 +18°C° 0.6 mm 8 m/S 739 mmHg 90%
    18:00 +17°C° 1.5 mm 8 m/S 739 mmHg 91%
    19:00 +17°C° 1.5 mm 8 m/S 739 mmHg 92%
    20:00 +16°C° 1.5 mm 8 m/S 739 mmHg 92%
    21:00 +15°C° 0 mm 8 m/S 740 mmHg 92%
    22:00 +14°C° 0 mm 7 m/S 740 mmHg 91%
    23:00 +12°C° 0 mm 7 m/S 741 mmHg 91%

    31 Mai, Sonntag

    Zeit Temperatur Niederschläge Wind Luftdruck Luftfeuchtigkeit
    00:00 +13°C° 0 mm 6 m/S 741 mmHg 92%
    01:00 +12°C° 0 mm 5 m/S 742 mmHg 94%
    02:00 +12°C° 0 mm 4 m/S 742 mmHg 95%
    03:00 +12°C° 0 mm 4 m/S 742 mmHg 95%
    04:00 +12°C° 0 mm 3 m/S 743 mmHg 95%
    05:00 +12°C° 0 mm 3 m/S 743 mmHg 95%
    06:00 +13°C° 0 mm 3 m/S 743 mmHg 91%
    07:00 +14°C° 0 mm 3 m/S 744 mmHg 87%
    08:00 +16°C° 0 mm 3 m/S 744 mmHg 84%
    09:00 +16°C° 0.1 mm 3 m/S 744 mmHg 82%
    10:00 +17°C° 0.1 mm 3 m/S 745 mmHg 79%
    11:00 +18°C° 0.1 mm 3 m/S 745 mmHg 77%
    12:00 +18°C° 0.7 mm 3 m/S 745 mmHg 79%
    13:00 +18°C° 0.7 mm 4 m/S 745 mmHg 81%
    14:00 +18°C° 0.7 mm 4 m/S 745 mmHg 83%
    15:00 +18°C° 0.9 mm 4 m/S 745 mmHg 83%
    16:00 +17°C° 0.9 mm 5 m/S 745 mmHg 84%
    17:00 +17°C° 0.9 mm 5 m/S 745 mmHg 85%
    18:00 +16°C° 0.7 mm 5 m/S 745 mmHg 88%
    19:00 +15°C° 0.7 mm 5 m/S 746 mmHg 90%
    20:00 +14°C° 0.7 mm 5 m/S 746 mmHg 93%
    21:00 +14°C° 0.2 mm 5 m/S 746 mmHg 94%
    22:00 +14°C° 0.2 mm 5 m/S 747 mmHg 94%
    23:00 +13°C° 0.2 mm 6 m/S 747 mmHg 95%

    1 Juni, Montag

    Zeit Temperatur Niederschläge Wind Luftdruck Luftfeuchtigkeit
    00:00 +13°C° 0 mm 6 m/S 747 mmHg 95%
    01:00 +13°C° 0 mm 5 m/S 748 mmHg 95%
    02:00 +13°C° 0 mm 5 m/S 748 mmHg 94%
    03:00 +13°C° 0 mm 5 m/S 748 mmHg 94%
    04:00 +13°C° 0 mm 5 m/S 748 mmHg 94%
    05:00 +13°C° 0 mm 5 m/S 748 mmHg 93%
    06:00 +14°C° 0 mm 6 m/S 749 mmHg 90%
    07:00 +14°C° 0 mm 6 m/S 749 mmHg 88%
    08:00 +15°C° 0 mm 7 m/S 749 mmHg 85%
    09:00 +15°C° 0.1 mm 7 m/S 750 mmHg 84%
    10:00 +15°C° 0.1 mm 7 m/S 750 mmHg 83%
    11:00 +15°C° 0.1 mm 7 m/S 750 mmHg 82%
    12:00 +16°C° 0.1 mm 7 m/S 750 mmHg 80%
    13:00 +16°C° 0.1 mm 7 m/S 750 mmHg 78%
    14:00 +17°C° 0.1 mm 7 m/S 750 mmHg 75%
    15:00 +17°C° 0.1 mm 6 m/S 750 mmHg 75%
    16:00 +17°C° 0.1 mm 6 m/S 750 mmHg 74%
    17:00 +19°C° 0.1 mm 6 m/S 750 mmHg 74%
    18:00 +17°C° 0 mm 5 m/S 750 mmHg 76%
    19:00 +16°C° 0 mm 5 m/S 751 mmHg 79%
    20:00 +15°C° 0 mm 4 m/S 751 mmHg 82%
    21:00 +14°C° 0 mm 4 m/S 751 mmHg 83%
    22:00 +13°C° 0 mm 4 m/S 751 mmHg 84%
    23:00 +12°C° 0 mm 4 m/S 751 mmHg 84%

    2 Juni, Dienstag

    Zeit Temperatur Niederschläge Wind Luftdruck Luftfeuchtigkeit
    00:00 +12°C° 0 mm 4 m/S 752 mmHg 85%
    01:00 +11°C° 0 mm 4 m/S 752 mmHg 85%
    02:00 +11°C° 0 mm 4 m/S 752 mmHg 85%
    03:00 +10°C° 0 mm 4 m/S 752 mmHg 86%
    04:00 +10°C° 0 mm 4 m/S 752 mmHg 86%
    05:00 +10°C° 0 mm 4 m/S 752 mmHg 87%
    06:00 +11°C° 0 mm 4 m/S 752 mmHg 80%
    07:00 +13°C° 0 mm 5 m/S 752 mmHg 74%
    08:00 +15°C° 0 mm 5 m/S 753 mmHg 67%
    09:00 +16°C° 0 mm 5 m/S 753 mmHg 64%
    10:00 +17°C° 0 mm 5 m/S 753 mmHg 60%
    11:00 +19°C° 0 mm 5 m/S 753 mmHg 56%
    12:00 +19°C° 0.1 mm 5 m/S 753 mmHg 56%
    13:00 +19°C° 0.1 mm 4 m/S 752 mmHg 57%
    14:00 +20°C° 0.1 mm 4 m/S 752 mmHg 57%
    15:00 +19°C° 0.1 mm 4 m/S 752 mmHg 60%
    16:00 +19°C° 0.1 mm 3 m/S 752 mmHg 64%
    17:00 +18°C° 0.1 mm 3 m/S 752 mmHg 67%
    18:00 +17°C° 0 mm 3 m/S 752 mmHg 73%
    19:00 +16°C° 0 mm 3 m/S 752 mmHg 78%
    20:00 +14°C° 0 mm 2 m/S 752 mmHg 84%
    21:00 +13°C° 0 mm 2 m/S 752 mmHg 87%
    22:00 +12°C° 0 mm 2 m/S 752 mmHg 89%
    23:00 +10°C° 0 mm 2 m/S 753 mmHg 92%
    Mehr zeigen